Change the Weather History Date:

Wednesday, July 10, 2013

  Actual Average Record
Temperature  
Mean Temperature 82 °F 78 °F  
Max Temperature 87 °F 89 °F 104 °F (1936)
Min Temperature 76 °F 68 °F 52 °F (1961)
Degree Days  
Heating Degree Days 0 0  
Month to date heating degree days 0 0  
Since 1 June heating degree days 1 6  
Since 1 July heating degree days 0 0  
Cooling Degree Days 17 13  
Month to date cooling degree days 106 130  
Year to date cooling degree days 573 563  
Since 1 June cooling degree days 402 428  
Growing Degree Days 32 (Base 50)    
Moisture  
Dew Point 72 °F    
Average Humidity 72    
Maximum Humidity 87    
Minimum Humidity 57    
Precipitation  
Precipitation 0.03 in 0.13 in 3.00 in (1967)
Month to date precipitation 0.38 1.32  
Year to date precipitation 30.48 25.34  
Snow  
Snow 0.00 in 0.00 in - ()
Month to date snowfall 0.0 0.0  
Since 1 June snowfall 0.0 0.0  
Since 1 July snowfall 0.0 0.0  
Snow Depth 0.00 in    
Sea Level Pressure  
Sea Level Pressure 29.95 in    
Wind  
Wind Speed 5 mph (WSW)    
Max Wind Speed 14 mph    
Max Gust Speed 18 mph    
Visibility 10 miles    
Events Thunderstorm    
T = Trace of Precipitation, MM = Missing Value Source: NWS Daily Summary

Daily Weather History Graph

Daily Weather History Graph

Search for Another Location

Airport or City:

Trip Planner

Search our weather history database for the weather conditions in past years. The results will help you decide how hot, cold, wet, or windy it might be!

Date:

Astronomy

Jul. 10, 2013 Rise Set
Actual Time 5:36 AM CDT 8:14 PM CDT
Civil Twilight 5:05 AM CDT 8:45 PM CDT
Nautical Twilight 4:26 AM CDT 9:23 PM CDT
Astronomical Twilight 3:43 AM CDT 10:06 PM CDT
Moon 7:53 AM CDT (7/10) 9:27 PM CDT (7/10)
Length of Visible Light 15h 40m
Length of Day
14h 38m
Waxing Crescent, 5% of the Moon is Illuminated
Jul 10
Waxing Crescent
Jul 15
First Quarter
Jul 22
Full
Jul 29
Last Quarter
Aug 6
New

Hourly Weather History & Observations

Time (CDT) Temp. Heat Index Dew Point Humidity Pressure Visibility Wind Dir Wind Speed Gust Speed Precip Events Conditions
12:54 AM 82.0 °F 87.9 °F 73.9 °F 76% 29.98 in 10.0 mi SSW 8.1 mph - N/A   Clear
1:54 AM 81.0 °F 85.8 °F 73.0 °F 77% 29.97 in 10.0 mi SSW 8.1 mph - N/A   Clear
2:54 AM 79.0 °F - 73.9 °F 84% 29.97 in 10.0 mi SW 6.9 mph - N/A   Clear
3:54 AM 78.1 °F - 73.0 °F 84% 29.96 in 10.0 mi SSW 4.6 mph - N/A   Clear
4:54 AM 78.1 °F - 73.0 °F 84% 29.96 in 10.0 mi South 3.5 mph - N/A   Clear
5:54 AM 78.1 °F - 73.0 °F 84% 29.94 in 10.0 mi SSW 4.6 mph - N/A   Clear
6:54 AM 80.1 °F 84.2 °F 73.0 °F 79% 29.94 in 10.0 mi SSW 6.9 mph - N/A   Overcast
7:54 AM 81.0 °F 86.2 °F 73.9 °F 79% 29.96 in 10.0 mi SW 11.5 mph - N/A   Mostly Cloudy
8:54 AM 82.9 °F 89.4 °F 73.9 °F 74% 29.95 in 10.0 mi SW 9.2 mph - N/A   Scattered Clouds
9:54 AM 84.9 °F 93.3 °F 75.0 °F 72% 29.93 in 10.0 mi WSW 8.1 mph - N/A   Clear
10:54 AM 84.9 °F 93.3 °F 75.0 °F 72% 29.95 in 10.0 mi West 10.4 mph - N/A   Scattered Clouds
11:47 AM 82.4 °F 88.2 °F 73.4 °F 74% 30.01 in 10.0 mi NW 9.2 mph - N/A   Mostly Cloudy
11:54 AM 82.9 °F 89.4 °F 73.9 °F 74% 29.99 in 10.0 mi WNW 8.1 mph - N/A   Mostly Cloudy
12:01 PM 82.4 °F 88.2 °F 73.4 °F 74% 30.01 in 10.0 mi NNW 6.9 mph - N/A Thunderstorm Overcast
12:54 PM 80.1 °F 83.8 °F 72.0 °F 76% 30.02 in 10.0 mi NNW 4.6 mph - 0.03 in   Overcast
1:54 PM 82.0 °F 86.3 °F 71.1 °F 69% 29.94 in 10.0 mi North 9.2 mph - N/A   Clear
2:54 PM 84.0 °F 88.4 °F 70.0 °F 63% 29.91 in 10.0 mi Variable 3.5 mph - 0.00 in   Clear
3:54 PM 82.9 °F 87.0 °F 70.0 °F 65% 29.89 in 10.0 mi Calm Calm - N/A   Clear
4:54 PM 86.0 °F 90.7 °F 70.0 °F 59% 29.89 in 10.0 mi West 5.8 mph - N/A   Partly Cloudy
5:54 PM 86.0 °F 90.1 °F 69.1 °F 57% 29.89 in 10.0 mi WNW 9.2 mph - N/A   Clear
6:54 PM 86.0 °F 90.1 °F 69.1 °F 57% 29.91 in 10.0 mi Calm Calm - N/A   Clear
7:54 PM 82.0 °F 85.9 °F 70.0 °F 67% 29.92 in 10.0 mi NNW 4.6 mph - N/A   Scattered Clouds
8:54 PM 80.1 °F 83.2 °F 70.0 °F 71% 29.93 in 10.0 mi Calm Calm - N/A   Partly Cloudy
9:54 PM 79.0 °F - 71.1 °F 77% 29.94 in 10.0 mi Calm Calm - N/A   Scattered Clouds
10:54 PM 77.0 °F - 71.1 °F 82% 29.94 in 10.0 mi Calm Calm - N/A   Partly Cloudy
11:54 PM 75.9 °F - 71.1 °F 85% 29.94 in 10.0 mi Calm Calm - N/A   Overcast